Flag for Germany Weather past 2 weeks in Viersen, North Rhine-Westphalia, Germany

Now
63 °F

Sunny.


Feels Like: 63 °F
Forecast: 51 / 79 °F
Wind: 3 mph from North

Location: Monchengladbach Airport

Current Time: Aug 1, 2015 at 10:14:18 AM

Latest Report: Aug 1, 2015 at 9:20 AM


Visibility: 10 mi

Pressure: 29.98 "Hg

Humidity: 59%

Dew point: 48 °F

Location of ViersenLocation

Historic Weather in Viersen — Graph

°F

Viersen temperature yesterday

Maximum temperature yesterday: 68 °F (at 5:20 PM)
Minimum temperature yesterday: 54 °F (at 8:20 AM)
Average temperature yesterday: 63 °F

Past Weeks' High & Low Weather Summary

 TemperatureHumidityPressure
High90 °F (Jul 17, 4:50 PM)100% (Jul 20, 7:50 AM)30.15 "Hg (Jul 20, 7:50 AM)
Low54 °F (Jul 31, 8:20 AM)29% (Jul 17, 4:50 PM)29.50 "Hg (Jul 25, 7:50 AM)
Average68 °F66%29.88 "Hg
* Reported Jul 17 8:20 AM — Aug 1 8:50 AM, Viersen, Weather by CustomWeather, © 2015

Note: Actual official high and low records may vary slightly from our data, if they occured in-between our weather recording intervals... More about our weather records

Advertising

Viersen weather history for previous 24 hours

 ConditionsComfort  
Time TempWeatherWind HumidityBarometerVisibility
8:50 AM
Sat, Aug 1
59 °FSunny.2 mph68%29.98 "Hg10 mi
8:20 AM57 °FSunny.2 mph67%29.98 "Hg10 mi
7:50 AM57 °FSunny.2 mph72%29.98 "Hg10 mi
8:20 PM
Fri, Jul 31
66 °FClear.6 mph40%30.04 "Hg10 mi
7:50 PM66 °FPassing clouds.6 mph40%30.04 "HgN/A
7:20 PM68 °FPassing clouds.5 mph38%30.04 "HgN/A
6:50 PM66 °FClear.2 mph37%30.04 "Hg10 mi
6:20 PM68 °FClear.5 mph35%30.07 "Hg10 mi
5:50 PM66 °FClear.3 mph35%30.07 "Hg10 mi
5:20 PM68 °FClear.7 mph38%30.07 "Hg10 mi
4:50 PM66 °FClear.6 mph40%30.07 "Hg10 mi
4:20 PM66 °FClear.3 mph40%30.07 "Hg10 mi
3:50 PM66 °FClear.3 mph40%30.07 "Hg10 mi
3:20 PM66 °FClear.5 mph40%30.09 "Hg10 mi
2:50 PM66 °FPassing clouds.6 mph43%30.09 "HgN/A
2:20 PM64 °FPassing clouds.5 mph43%30.12 "HgN/A
1:50 PM63 °FClear.5 mph45%30.12 "Hg10 mi
1:20 PM63 °FScattered clouds.2 mph49%30.12 "HgN/A
12:50 PM64 °FPassing clouds.5 mph52%30.12 "HgN/A
12:20 PM63 °FPassing clouds.3 mph52%30.15 "HgN/A
11:50 AM63 °FScattered clouds.2 mph56%30.15 "HgN/A
11:20 AM61 °FScattered clouds.2 mph55%30.15 "HgN/A
10:50 AM59 °FSunny.2 mph63%30.15 "HgN/A
10:20 AM59 °FScattered clouds.1 mph63%30.15 "HgN/A
Weather by CustomWeather, © 2015

See weather overviewHow to use our weather pages